{"data":{"norad_id":51886,"intl_designator":"2022-022AL","name":"STARLINK-3565","alt_names":[],"object_type":"PAYLOAD","status":"ACTIVE","operator":null,"country":"US","launch_date":"2022-03-03","launch_site_code":"AFETR","launch_vehicle":null,"mission":null,"orbit_class":"UNKNOWN","rcs_meters":null,"size_class":null,"mass_kg":null,"dimensions":null,"purposes":["comms"],"wikipedia_slug":null,"has_3d_model":false,"image_url":null,"decayed_at":null,"tle_current":{"epoch":"2026-05-24T22:42:11.666304Z","epoch_age_seconds":83758,"freshness":"FRESH","line1":"1 51886U 22022AL  26144.94596836 -.00000873  00000+0 -36777-4 0  9996","line2":"2 51886  53.2144  16.7917 0001324  89.6760 270.4384 15.08839417234762","mean_motion":15.08839417,"eccentricity":0.0001324,"inclination_deg":53.2144,"raan_deg":16.7917,"arg_perigee_deg":89.676,"mean_anomaly_deg":270.4384,"bstar":-3.6777e-5,"rev_number":23476,"period_min":95.437591553853,"perigee_km":538.82924336301,"apogee_km":540.66109856188,"semimajor_km":6917.8821709624,"source":"CELESTRAK","updated_at":"2026-05-25T13:38:16.987499Z"}}}